Tracking 35334 objects as of 12-Sep-2026
HD Live streaming from Space Station
objects crossing your sky now

OBJECT E

Track OBJECT E now!
10-day predictions


NORAD ID: 45915
Int'l Code: 2019-079E
Launch date: November 25, 2019
Source: Commonwealth of Independent States (former USSR) (CIS)
Launch site: PLESETSK MISSILE AND SPACE COMPLEX (PKMTR)
Your satellite tracking list
Your tracking list is empty




NASA's NSSDC Master Catalog

Two Line Element Set (TLE):
1 45915U 19079E   26255.26727759  .00001498  00000-0  13714-3 0  9996
2 45915  97.6685 256.7097 0170148  61.0938 300.7227 14.86040822332588
Source of the keplerian elements: AFSPC